Regional Weather Roundup
Issued by NWS

Home | Current Version | Previous Version | Text Only | Print | Product List | Glossary Off
Versions: 1 2 3 4 5 6 7 8 9 10 11 12 13 14 15 16 17 18 19 20 21 22 23 24 25 26 27 28 29 30 31 32 33 34 35 36 37 38 39 40 41 42 43 44 45 46 47 48 49 50

000
ASUS45 KCYS 170810
RWRWY

WYOMING REGIONAL WEATHER ROUNDUP
NATIONAL WEATHER SERVICE CHEYENNE WY
200 AM MDT WED SEP 17 2014

NOTE:  "FAIR" INDICATES FEW OR NO CLOUDS BELOW 12,000 FEET
WITH NO SIGNIFICANT WEATHER AND/OR OBSTRUCTIONS TO VISIBILITY.

WYZ001-170900-
YELLOWSTONE NATIONAL PARK

CITY           SKY/WX    TMP DP  RH WIND       PRES   REMARKS
LK YELLOWSTONE   N/A     39  36  89 CALM      30.26S
W YELLOWSTONE  NOT AVBL

$$
WYZ002>013-054>058-071-098>099-170900-
NORTHERN WYOMING

CITY           SKY/WX    TMP DP  RH WIND       PRES   REMARKS
JACKSON        PTCLDY    46  45  93 N5        30.17S
CODY           PTCLDY    55  45  67 CALM      30.07R
GREYBULL       MOCLDY    58  48  69 SE8       29.97F
WORLAND        PTCLDY    56  47  71 E7        30.00F
SHERIDAN       MOCLDY    56  47  71 SW7       29.98F
BUFFALO        MOCLDY    58  38  47 SW5       30.05F
GILLETTE       PTCLDY    57  40  52 S12       30.01S
HULETT         FAIR      52  37  58 MISG      30.01
NEWCASTLE      FAIR      52  36  54 CALM      30.03

$$
WYZ014>020-022>026-101>103-170900-
CENTRAL WYOMING

CITY           SKY/WX    TMP DP  RH WIND       PRES   REMARKS
BIG PINEY      CLEAR     44  35  70 N8        30.22F
PINEDALE       MOSUNNY   43  36  75 W7        30.24S
DUBOIS         PTSUNNY   46  43  87 NW8       30.22F THUNDER
LANDER         CLEAR     59  40  49 NE3       30.10F
RIVERTON       PTCLDY    60  40  47 S5        30.10F
CASPER         PTCLDY    60  36  40 N10       30.08F
DOUGLAS        MOCLDY    61  39  44 E6        30.07F

$$
WYZ021-027>030-104>119-170900-
SOUTHERN WYOMING

CITY           SKY/WX    TMP DP  RH WIND       PRES   REMARKS
EVANSTON       CLEAR     58  36  43 SE7       30.21S
KEMMERER       SUNNY     48  37  66 N10       30.23S
FORT BRIDGER   FAIR      61  37  42 S12       30.22F
ROCK SPRINGS   CLEAR     58  36  43 S7        30.19F
DIXON          FAIR      56  40  56 E12       30.22F
RAWLINS        CLEAR     59  35  40 NW6       30.19S
SARATOGA       FAIR      52  39  62 CALM      30.22S
LARAMIE        CLEAR     47  34  60 S7        30.22S
CHEYENNE       CLEAR     57  37  47 W8        30.14F
TORRINGTON     PTCLDY    54  45  71 CALM      30.00R
PINE BLUFFS    FAIR      50  37  62 SW6       30.10F

$$


USA.gov is the U.S. government's official web portal to all federal, state and local government web resources and services.